Regional Weather Roundup
Issued by NWS

Home | Current Version | Previous Version | Graphics & Text | Print | Product List | Glossary On
Versions: 1 2 3 4 5 6 7 8 9 10 11 12 13 14 15 16 17 18 19 20 21 22 23 24 25 26 27 28 29 30 31 32 33 34 35 36 37 38 39 40 41 42 43 44 45 46 47 48 49 50
000
ASUS45 KBOU 311707
RWRCO

WEATHER ROUNDUP FOR COLORADO
NATIONAL WEATHER SERVICE DENVER/BOULDER CO
1000 AM MST SAT JAN 31 2015

NOTE: "FAIR" INDICATES FEW OR NO CLOUDS BELOW 12000 FEET WITH NO
SIGNIFICANT WEATHER AND/OR OBSTRUCTIONS TO VISIBILITY.

COZ001>005-013-030-031-311800-
...NORTHWEST COLORADO...

CITY           SKY/WX    TMP DP  RH WIND       PRES   REMARKS
CRAIG          CLOUDY    32  29  88 SW13      29.94R FOG     WCI  22
HAYDEN         CLOUDY    30  27  86 W13       29.92R WCI  20
MEEKER         LGT SNOW  33  29  85 SW3       29.93S FOG
MOUNT WERNER   NOT AVBL
STEAMBOAT SPGS CLOUDY    32  30  94 S6        29.90S WCI  26
WALDEN         CLOUDY    30  28  93 CALM      29.87F
$$

COZ006>008-011-311800-
...WEST CENTRAL VALLEYS...

CITY           SKY/WX    TMP DP  RH WIND       PRES   REMARKS
GRAND JUNCTION CLOUDY    38  37  97 NW6       29.93R
MONTROSE       LGT RAIN  35  33  92 CALM      29.94R
EAGLE          LGT SNOW  34  34 100 CALM      29.92R VSB 3/4
RIFLE          LGT RAIN  34  33  96 CALM      29.92S
DELTA          LGT RAIN  40  40  99 NE5       29.92S
NUCLA          CLOUDY    32  32 100 CALM      29.97R FOG
$$

COZ017>023-064>068-311800-
...SOUTHWEST COLORADO...

CITY           SKY/WX    TMP DP  RH WIND       PRES   REMARKS
DURANGO        CLOUDY    33  32  96 W3        29.91R
CORTEZ         CLOUDY    35  34  96 W3        29.93R
PAGOSA SPRINGS CLOUDY    36  34  94 CALM      29.90S
TELLURIDE      CLOUDY    30  30 100 W7        29.93R WCI  23
WOLF CREEK PAS FOG       23  23 100 SW7       29.95S VSB 1/4 WCI  15
$$

COZ009-010-012-014-032>034-037-058>063-311800-
...CENTRAL COLORADO...

CITY           SKY/WX    TMP DP  RH WIND       PRES   REMARKS
ASPEN          LGT SNOW  32  31  96 N3        29.88R VSB 1
BUENA VISTA    CLOUDY    32  29  90 CALM      29.88F
COPPER MTN     HAZE      28  23  80 W14       29.92R VSB 1/4 WCI  17
BERTHOUD PASS  CLOUDY    19  14  79 MISG      29.92S
COTTONWOOD PAS MIX PCPN  32  30  93 CALM      29.89S VSB<1/4
GUNNISON       CLOUDY    32  28  86 CALM      29.91S
KREMMLING      LGT SNOW  30  27  86 CALM      29.90S
LEADVILLE      LGT SNOW  25  23  92 CALM      29.88S FOG
MONARCH PASS   SNOW      25  23  93 MISG      30.01S VSB<1/4
SALIDA         CLOUDY    34  32  94 CALM      29.95F
SUNLIGHT       SNOW      28  27  93 W3          N/A  VSB 1/4
WILKERSON PASS FOG      N/A N/A N/A W6        29.92S VSB 1/4
$$

COZ069>075-311800-
...SAN LUIS VALLEY/SANGRE DE CRISTO MOUNTAINS...

CITY           SKY/WX    TMP DP  RH WIND       PRES   REMARKS
ALAMOSA        CLOUDY    31  28  89 CALM      29.89S
LA VETA PASS   FOG       28  25  86 S7        29.88S VSB 1/4 WCI  21
SAGUACHE       LGT SNOW  32  30  93 CALM      29.90F
$$

COZ035-036-038>040-311800-
...NORTHERN COLORADO FRONT RANGE...

CITY           SKY/WX    TMP DP  RH WIND       PRES   REMARKS
DENVER INTL AP CLOUDY    34  26  72 NW7       29.90R WCI  28
DMNS CITY PARK   N/A     37  25  62 NE2       29.90S
AURORA         CLOUDY    33  26  76 NW3       29.90R
FRONT RANGE AP CLOUDY    36  28  75 NW6       29.90R
ERIE MUNI ARPT CLOUDY    37  27  68 CALM      29.90S
BOULDER MUN AP CLOUDY    36  25  64 CALM      29.89S
CENTENNIAL     CLOUDY    33  25  72 NW6       29.89R WCI  28
BROOMFIELD     PTSUNNY   36  25  64 N6        29.89S
FORT COLLINS   CLOUDY    37  27  65 N6        29.92S
LONGMONT       CLOUDY    40  28  60 NW5       29.92R
$$

COZ041-046-047-076>085-087-088-311800-
...PIKES PEAK/PALMER DIVIDE AND SOUTHERN FOOTHILLS...

CITY           SKY/WX    TMP DP  RH WIND       PRES   REMARKS
COLO. SPRINGS  CLOUDY    37  29  72 N5        29.87F
A. F. ACADEMY  MIX PCPN  34  23  64 N5        29.87S WCI  30
ELLICOTT       CLOUDY   N/A N/A N/A NW6       29.87S
FALCON         CLOUDY    35  24  66 CALM      29.89R
FORT CARSON    CLOUDY    38  26  62 NE5       29.86F
LIMON          CLOUDY    34  27  75 NW14      29.87F WCI  25
MONUMENT HILL  CLOUDY    32  23  69 NW3       29.87S
TRINIDAD       CLOUDY    39  29  67 CALM      29.86F
$$

COZ042>045-048>051-090-091-311800-
...NORTHEAST COLORADO...

CITY           SKY/WX    TMP DP  RH WIND       PRES   REMARKS
GREELEY ARPT   CLOUDY    37  25  60 CALM      29.89S
AKRON          FOG       32  32 100 N7        29.88F VSB 3/4 WCI  26
BURLINGTON     CLOUDY    34  32  92 N7        29.88S FOG     WCI  28
WRAY           CLOUDY   N/A N/A N/A N7        29.90F
STERLING       CLOUDY    36  32  87 NE6       29.91R
HOLYOKE        NOT AVBL
FORT MORGAN    CLOUDY    36  28  74 NE5       29.91S
$$

COZ086-089-092>099-311800-
...SOUTHEAST COLORADO...

CITY           SKY/WX    TMP DP  RH WIND       PRES   REMARKS
PUEBLO         CLOUDY    38  36  92 CALM      29.87F
LA JUNTA       CLOUDY    40  35  83 N3        29.88F
LAMAR          CLOUDY    40  38  93 MISG      29.88R
SPRINGFIELD      N/A     38  34  85 SW10      29.87F
$$



USA.gov is the U.S. government's official web portal to all federal, state and local government web resources and services.